Back to catalog

CZ-3B R/B

AliveHEO
NORAD 62375·ROCKET BODY·🇨🇳 China

Launched Dec 20, 2024 from Xichang Satellite Launch Center

Loading…

Next Passes (next 24 hours)

TLE

FreshSource: Space-Track

Epoch: Sep 13, 2026, 10:36 UTC

1 62375U 24246B   26256.44234089  .00412993  80028-6  14199-2 0  9994
2 62375  28.0158 280.8323 5671599 103.6767 322.5006  4.68702139 21468

Track CZ-3B R/B in real time with AllMySat

Download on the App Store